Location: Greenwich
(51.4790°N, 0.0090°E)
Time: 13:31:09
(UTC+01:00)

ISS - Visible Passes

Search period start: 21 September 2021 00:00
Search period end: 01 October 2021 00:00
Orbit: 419 x 423 km, 51.6° (Epoch: 21 September)

Date Brightness Start Highest point End Pass type
(mag) Time Alt. Az. Time Alt. Az. Time Alt. Az.
21 Sep -3.9 20:43:42 10° WSW 20:47:05 75° SSE 20:47:52 49° E visible
21 Sep -0.6 22:20:33 10° W 22:20:52 12° W 22:20:52 12° W visible
22 Sep -3.7 19:56:53 10° WSW 20:00:12 61° SSE 20:02:48 16° E visible
22 Sep -2.3 21:33:39 10° W 21:35:48 36° W 21:35:48 36° W visible
23 Sep -3.8 20:46:44 10° W 20:50:07 86° N 20:50:41 60° E visible
23 Sep -0.4 22:23:36 10° W 22:23:40 10° W 22:23:40 10° W visible
24 Sep -3.8 19:59:49 10° W 20:03:12 88° S 20:05:32 19° E visible
24 Sep -1.9 21:36:42 10° W 21:38:31 29° W 21:38:31 29° W visible
25 Sep -3.9 20:49:46 10° W 20:53:10 89° NE 20:53:21 80° E visible
26 Sep -3.8 20:02:51 10° W 20:06:14 85° N 20:08:10 24° E visible
26 Sep -1.4 21:39:43 10° W 21:41:09 22° W 21:41:09 22° W visible
27 Sep -3.7 19:15:55 10° W 19:19:18 86° N 19:22:42 10° E visible
27 Sep -3.6 20:52:48 10° W 20:55:58 65° SW 20:55:58 65° SW visible
28 Sep -3.8 20:05:52 10° W 20:09:15 81° SSW 20:10:49 29° ESE visible
28 Sep -1.0 21:42:52 10° W 21:43:48 16° W 21:43:48 16° W visible
29 Sep -3.7 19:18:56 10° W 19:22:19 90° ESE 19:25:39 10° E visible
29 Sep -2.7 20:55:50 10° W 20:58:39 37° SW 20:58:39 37° SW visible
30 Sep -3.3 20:08:52 10° W 20:12:10 51° SSW 20:13:32 29° SE visible
